SCOUT X-4 DEB, 2986

Orbit data source: Space-Track

SCOUT X-4 DEB, 2986 is space debris in LEO originally from a launch on Thu, 04 Jun 1964 UTC launched from the Air Force Western Test Range (AFWTR). Debris objects in space refer to the collection of defunct objects orbiting the Earth. Examples of debris include non-operational satellites, rocket bodies, and fragments generated from explosions, collisions, or faulty payload assembly.

Loading next visibility...
Identifier
2986, 1964-026E
Orbit
LEO
Country
Flag of USUS
Related business
Manufacturer
Unknown
Mission
Spacecraft
Bus & Motor
Unknown
Mass
Unknown
Launch date (UTC)
1964-06-04 (62 years ago)
Launch vehicle
Unknown
Launch site
Air Force Western Test Range (AFWTR)
Object type
Payload
Rocket body
Debris
Shape & HBR
Unknown shape, 0.1 m
Radar Cross Section
Medium (>0.1 m² and <1 m²)

Expand to show TLE details & history
Last TLE update: 14 hours ago

TLE from 14 hours ago
0 SCOUT X-4 DEB
1 02986U 64026E   26264.84460111  .00000071  00000-0  37110-4 0  9992
2 02986  90.4848 197.5265 0043513 279.4335  80.1931 14.06560465188055
Epoch: 2026-09-21T20:16Z
TLE epoch observation values (Epoch: 2026-09-21T20:16:13.535Z)
Latitude
0.00002°
Longitude
-107.24849°
Altitude
868.96 km
Speed
7.421 km/s
True Right ascension
13h 10m 06s
True Declination
0° 00' 00"
Sunlit
Object was in daylight at epoch
Visualization orbit readout
Latitude
Unknown
Longitude
Unknown
Altitude
Unknown
Speed
Unknown
Apparent Right ascension
Unknown
Apparent Declination
Unknown
Sunlit
N/A
Visualization observer readout
Local Sidereal Time
03:20:49
Azimuth
Unknown
Elevation
Unknown
Doppler factor
Unknown
Orbital elements
Apogee altitude
899.665 km
Perigee altitude
836.603 km
Semi-major axis
7,246.271 km
Eccentricity
0.00435
Inclination
90.4848°
RAAN
197.5265°
Arg. of periapsis
279.4335°
True anomaly
80.68489°
Mean anomaly
80.1931°
Eccentric anomaly
80.43895°
Mean motion
3.51861 °/min
Orbital period
102.31 mins
BSTAR
0.00003711
Loading maneuver chart data...
Computing Atmospheric mass density...
Loading historical data...
Loading historical data...
Loading historical data...
Loading historical data...
Loading historical data...
Loading historical data...
Loading historical data...

Documentation

Showing up to 5 results
|